Location: Starry Hill Observatory
(46.8582°N, 122.3590°W)
Time: 10:46:04
(UTC-07:00)

ISS - Visible Passes

Search period start: 28 March 2015 00:00
Search period end: 07 April 2015 00:00
Orbit: 396 x 406 km, 51.6° (Epoch: 28 March)

Date Brightness Start Highest point End Pass type
(mag) Time Alt. Az. Time Alt. Az. Time Alt. Az.
28 Mar -1.0 04:17:07 24° ENE 04:17:07 24° ENE 04:18:41 10° E visible
28 Mar -3.3 05:49:43 16° WNW 05:52:07 59° SSW 05:55:18 10° SE visible
29 Mar -3.4 04:58:46 85° NNE 04:58:46 85° NNE 05:02:01 10° ESE visible
30 Mar -0.4 04:08:00 14° E 04:08:00 14° E 04:08:32 10° E visible
30 Mar -2.4 05:40:37 24° WSW 05:41:37 30° SW 05:44:28 10° SSE visible
31 Mar -1.5 04:50:04 22° SE 04:50:04 22° SE 04:51:26 10° SE visible
01 Apr -1.0 05:32:27 11° SSW 05:32:27 11° SSW 05:32:49 10° S visible
03 Apr -1.2 20:24:12 10° SE 20:24:49 10° SE 20:25:20 10° SE visible
03 Apr -0.7 21:57:28 10° SW 21:58:00 14° SW 21:58:00 14° SW visible
04 Apr -2.7 21:04:11 10° SSW 21:07:12 36° SE 21:07:46 33° ESE visible
04 Apr -0.1 22:40:21 10° W 22:40:24 10° W 22:40:24 10° W visible
05 Apr -3.2 21:46:38 10° WSW 21:49:48 73° NW 21:49:48 73° NW visible
06 Apr -3.4 20:53:01 10° SW 20:56:16 70° SSE 20:58:55 14° ENE visible
06 Apr -1.1 22:29:44 10° W 22:31:32 26° WNW 22:31:32 26° WNW visible
